Regional Weather Roundup
Issued by NWS New Orleans/Baton Rouge, LA

Home | Current Version | Previous Version | Text Only | Print | Product List | Glossary On
Versions: 1 2 3 4 5 6 7 8 9 10 11 12 13 14 15 16 17 18 19 20 21 22 23 24 25 26 27 28 29 30 31 32 33 34 35 36 37 38 39 40 41 42 43 44 45 46 47 48 49 50
000
ASUS44 KLIX 040911
RWRLIX
NEW ORLEANS REGIONAL WEATHER ROUNDUP
NATIONAL WEATHER SERVICE NEW ORLEANS LA
400 AM CDT SAT JUL 04 2015

NOTE: "FAIR" INDICATES FEW OR NO CLOUDS BELOW 12,000 FEET WITH NO
      SIGNIFICANT WEATHER AND/OR OBSTRUCTIONS TO VISIBILITY.
      SKY/WX - SKY CONDITION AND SIGNIFICANT WEATHER.
      TMP - AIR TEMPERATURE.     DP    - DEWPOINT TEMPERATURE.
      RH  - RELATIVE HUMIDITY.   PRES  - PRESSURE.
      HI  - HEAT INDEX.          WCI   - WIND CHILL INDEX.

*  THESE STATIONS ARE NOT NWS OR FAA STATIONS AND ARE NOT UNDER
   NWS QUALITY CONTROL.

LAZ038-040-048-061>063-065>067-069-041000-
SOUTHEAST LOUISIANA

CITY           SKY/WX    TMP DP  RH WIND       PRES   REMARKS
N.O. AUDUBON     N/A     81  78  91 MISG        N/A
N.O. INTL ARPT CLEAR     78  73  84 S5        30.02S
N.O. LAKEFRONT PTCLDY    84  74  71 S7        30.02S
N.O. DOWNTOWN*   N/A     84  73  70 S3        30.03S
RESERVE*         N/A     81  75  81 S5        30.01S
SLIDELL        PTCLDY    79  76  90 CALM      30.01S
BATON ROUGE    MOCLDY    79  74  84 S6        30.01R
BOOTHVILLE     CLEAR     83  77  82 SW9       30.03F
BELLE CHASSE   CLEAR     75  73  93 CALM      30.02S
BOGALUSA*        N/A     77  72  86 CALM      30.02F
GALLIANO*      MOSUNNY   81  74  81 S3        30.03S
NEW ROADS*       N/A    N/A N/A N/A S3        30.01R
GONZALES*        N/A     76  76 100 CALM      30.01R
HAMMOND*       PTCLDY    77  72  83 CALM      30.03R
HOUMA*         CLEAR     77  75  93 CALM      30.02S
PORT FOURCHON* MOSUNNY   82  73  74 SW7       30.04R

$$

MSZ070-080>082-041000-
SOUTHERN MISSISSIPPI

CITY           SKY/WX    TMP DP  RH WIND       PRES   REMARKS
MCCOMB         FOG       75  74  96 SW5       30.02R VSB 1/4
GULFPORT       PTCLDY    82  75  79 SW5       30.01F
BILOXI         PTCLDY    82  77  84 SW12      30.01F
PASCAGOULA     PTCLDY    81  76  84 SW6       30.02S

$$

COASTAL OBSERVATIONS
LAKE AND NEARSHORE STATIONS

STATION/POSITION TIME  TEMP    WIND        PRES    WAVE
                       AIR SEA DIR/SP/G            HT/PER
                 (UTC) (F)     (DEG/KT/KT) (MB)    (FT/S)
PASCAGOULA       0800   83     220/ 11/ 15 1016.3
WAVELAND YACHT   0800   81 83  240/  3/  5 1016.8
GRAND ISLE       0800   84 87  210/  8/ 12 1016.9
SOUTHWEST PASS   0800   83 82  200/  6/  9 1017.4
NEW CANAL        0800   81 84   CALM  /  1 1015.7
SHELL BEACH      0800   81 85  200/  4/  5 1016.1

OFFSHORE STATIONS

STATION/POSITION TIME  TEMP    WIND        PRES    WAVE
                       AIR SEA DIR/SP/G            HT/PER
                 (UTC) (F)     (DEG/KT/KT) (MB)    (FT/S)
64 S DAUPHIN ISL 0850   84 84  210/ 12/ 14 1017.3    2/ 6

$$




USA.gov is the U.S. government's official web portal to all federal, state and local government web resources and services.